This is the latest recevied weather packets stored in our database for station/object KD4MBW. If no packets are shown the sender has not sent any weather packets the latest 10 day(s).
| Time | Temp. | Humidity | Pressure | Rain* | Wind** | Luminosity | Snow |
|---|---|---|---|---|---|---|---|
| 1777421199 | 22.78° C | 88% | 1018 hPa | 0 mm | - | 7 W/m² | - |
| 1777420896 | 22.78° C | 88% | 1018 hPa | 0 mm | - | 11 W/m² | - |
| 1777420592 | 22.78° C | 88% | 1017.7 hPa | 0 mm | - | 15 W/m² | - |
| 1777420289 | 23.33° C | 88% | 1017.6 hPa | 0 mm | - | 20 W/m² | - |
| 1777419984 | 23.33° C | 87% | 1017.8 hPa | 0 mm | - | 24 W/m² | - |
| 1777419681 | 23.33° C | 87% | 1017.7 hPa | 0 mm | - | 30 W/m² | - |
| 1777419379 | 23.33° C | 87% | 1017.7 hPa | 0 mm | - | 35 W/m² | - |
| 1777419078 | 23.33° C | 86% | 1018.4 hPa | 0 mm | - | 41 W/m² | - |
| 1777418777 | 23.89° C | 85% | 1018.3 hPa | 0 mm | - | 48 W/m² | - |
| 1777418475 | 23.89° C | 85% | 1018.2 hPa | 0 mm | - | 55 W/m² | - |
| 1777418170 | 23.89° C | 85% | 1018.2 hPa | 0 mm | - | 63 W/m² | - |
| 1777417867 | 23.89° C | 86% | 1018.7 hPa | 0 mm | - | 72 W/m² | - |
| 1777417563 | 23.89° C | 86% | 1018.4 hPa | 0 mm | - | 84 W/m² | - |
| 1777417259 | 23.89° C | 86% | 1018.4 hPa | 0 mm | - | 98 W/m² | - |
| 1777416954 | 23.89° C | 86% | 1018.4 hPa | 0 mm | - | 107 W/m² | - |
| 1777416649 | 23.89° C | 86% | 1018.5 hPa | 0 mm | - | 114 W/m² | - |
| 1777416346 | 23.89° C | 85% | 1018.4 hPa | 0 mm | - | 123 W/m² | - |
| 1777416044 | 24.44° C | 85% | 1018.4 hPa | 0 mm | - | 135 W/m² | - |
| 1777415741 | 24.44° C | 84% | 1018.5 hPa | 0 mm | - | 138 W/m² | - |
| 1777415437 | 24.44° C | 84% | 1018.4 hPa | 0 mm | - | 130 W/m² | - |
| 1777415132 | 24.44° C | 84% | 1018.6 hPa | 0 mm | - | 126 W/m² | - |
| 1777414827 | 24.44° C | 84% | 1018.6 hPa | 0 mm | - | 127 W/m² | - |
| 1777414522 | 24.44° C | 83% | 1018.4 hPa | 0 mm | - | 145 W/m² | - |
| 1777414221 | 25° C | 82% | 1018.7 hPa | 0 mm | - | 155 W/m² | - |
| 1777413917 | 25° C | 81% | 1018.6 hPa | 0 mm | - | 156 W/m² | - |
* Rain latest hour (hover to see other rain measurements)
** Current wind speed in m/s (hover to see current wind gust speed)